Frankfurt, Germany

2:43 AM CEST on June 25, 2018 (GMT +0200)
Frankfurt / Main

Weather History for EDDF - August, 2017

Change the Weather History Date:

Sunday, August 13, 2017

  Actual Average Record
Temperature  
Mean Temperature 68 °F -  
Max Temperature 77 °F 72 °F 95 °F (2015)
Min Temperature 60 °F 53 °F 48 °F (1999)
Cooling Degree Days 4    
Growing Degree Days 18 (Base 50)    
Moisture  
Dew Point 57 °F    
Average Humidity 73    
Maximum Humidity 94    
Minimum Humidity 38    
Precipitation  
Precipitation 0.00 in - - ()
Sea Level Pressure  
Sea Level Pressure 30.10 in    
Wind  
Wind Speed 6 mph ()    
Max Wind Speed 10 mph    
Max Gust Speed -    
Visibility 6.2 miles    
Events Rain    
Averages and records for this station are not official NWS values.
T = Trace of Precipitation, MM = Missing Value Source: Averaged Metar Reports

Daily Weather History Graph

Daily Weather History Graph

Search for Another Location

Airport or City:

Astronomy

Aug. 13, 2017 Rise Set
Actual Time 6:12 AM CEST 8:47 PM CEST
Civil Twilight 5:35 AM CEST 9:23 PM CEST
Nautical Twilight 4:49 AM CEST 10:09 PM CEST
Astronomical Twilight 3:54 AM CEST 11:04 PM CEST
Moon 11:36 PM CEST (8/13) 12:27 PM CEST (8/13)
Length of Visible Light 15h 48m
Length of Day
14h 35m
Waning Gibbous, 68% of the Moon is Illuminated
Aug 13
Waning Gibbous
Aug 15
Last Quarter
Aug 21
New
Aug 29
First Quarter
Sep 6
Full

Hourly Weather History & Observations

Time (CEST) Temp. Dew Point Humidity Pressure Visibility Wind Dir Wind Speed Gust Speed Precip Events Conditions
12:20 AM 60.8 °F 57.2 °F 88% 30.09 in 6.2 mi South 9.2 mph - N/A Rain Light Rain
12:50 AM 60.8 °F 57.2 °F 88% 30.09 in 6.2 mi South 9.2 mph - N/A Rain Light Rain
1:20 AM 60.8 °F 57.2 °F 88% 30.09 in 6.2 mi South 9.2 mph - N/A   Mostly Cloudy
1:50 AM 60.8 °F 57.2 °F 88% 30.09 in 6.2 mi South 5.8 mph - N/A   Mostly Cloudy
2:20 AM 60.8 °F 57.2 °F 88% 30.06 in 6.2 mi South 8.1 mph - N/A   Mostly Cloudy
2:50 AM 60.8 °F 57.2 °F 88% 30.06 in 6.2 mi South 5.8 mph - N/A   Mostly Cloudy
3:20 AM 60.8 °F 57.2 °F 88% 30.06 in 6.2 mi South 8.1 mph - N/A   Mostly Cloudy
3:50 AM 60.8 °F 57.2 °F 88% 30.06 in 6.2 mi South 6.9 mph - N/A   Mostly Cloudy
4:20 AM 60.8 °F 57.2 °F 88% 30.06 in 6.2 mi South 6.9 mph - N/A   Mostly Cloudy
4:50 AM 60.8 °F 59.0 °F 94% 30.06 in 6.2 mi South 6.9 mph - N/A Rain Light Rain
5:20 AM 60.8 °F 59.0 °F 94% 30.06 in 6.2 mi South 5.8 mph - N/A   Mostly Cloudy
5:50 AM 60.8 °F 59.0 °F 94% 30.06 in 6.2 mi South 4.6 mph - N/A   Mostly Cloudy
6:20 AM 60.8 °F 59.0 °F 94% 30.06 in 6.2 mi Variable 2.3 mph - N/A   Mostly Cloudy
6:50 AM 60.8 °F 59.0 °F 94% 30.09 in 6.2 mi South 3.5 mph - N/A Rain Light Rain
7:20 AM 60.8 °F 59.0 °F 94% 30.09 in 6.2 mi South 3.5 mph - N/A   Mostly Cloudy
7:42 AM 60.8 °F 59.0 °F 94% 30.09 in 6.2 mi SSW 4.6 mph - N/A   Mostly Cloudy
7:50 AM 60.8 °F 59.0 °F 94% 30.09 in 6.2 mi SSW 4.6 mph - N/A   Mostly Cloudy
8:20 AM 62.6 °F 60.8 °F 94% 30.09 in 6.2 mi SSW 4.6 mph - N/A   Mostly Cloudy
8:50 AM 62.6 °F 60.8 °F 94% 30.09 in 4.3 mi SSW 5.8 mph - N/A Rain Light Rain Showers
9:20 AM 64.4 °F 59.0 °F 83% 30.12 in 6.2 mi SSW 5.8 mph - N/A   Mostly Cloudy
9:50 AM 64.4 °F 59.0 °F 83% 30.12 in 6.2 mi South 5.8 mph - N/A   Mostly Cloudy
10:20 AM 66.2 °F 60.8 °F 83% 30.12 in 6.2 mi South 5.8 mph - N/A   Mostly Cloudy
10:50 AM 66.2 °F 60.8 °F 83% 30.12 in 6.2 mi SSW 8.1 mph - N/A   Mostly Cloudy
11:20 AM 68.0 °F 60.8 °F 78% 30.12 in 6.2 mi South 9.2 mph - N/A   Mostly Cloudy
11:50 AM 69.8 °F 59.0 °F 68% 30.12 in 6.2 mi SSW 8.1 mph - N/A   Scattered Clouds
12:20 PM 71.6 °F 59.0 °F 64% 30.12 in 6.2 mi SSW 8.1 mph - N/A   Scattered Clouds
12:50 PM 71.6 °F 57.2 °F 60% 30.12 in 6.2 mi WSW 8.1 mph - N/A   Scattered Clouds
1:20 PM 71.6 °F 57.2 °F 60% 30.12 in 6.2 mi WSW 6.9 mph - N/A   Scattered Clouds
1:50 PM 73.4 °F 55.4 °F 53% 30.12 in 6.2 mi SW 10.4 mph - N/A   Scattered Clouds
2:20 PM 75.2 °F 53.6 °F 47% 30.09 in 6.2 mi SW 8.1 mph - N/A   Scattered Clouds
2:50 PM 73.4 °F 55.4 °F 53% 30.09 in 6.2 mi WSW 8.1 mph - N/A   Scattered Clouds
3:20 PM 73.4 °F 55.4 °F 53% 30.12 in 6.2 mi SSW 6.9 mph - N/A   Scattered Clouds
3:50 PM 73.4 °F 55.4 °F 53% 30.12 in 6.2 mi South 5.8 mph - N/A   Scattered Clouds
4:20 PM 75.2 °F 55.4 °F 50% 30.12 in 6.2 mi SW 5.8 mph - N/A   Scattered Clouds
4:50 PM 77.0 °F 51.8 °F 41% 30.12 in - WSW 6.9 mph - N/A   Clear
5:20 PM 77.0 °F 51.8 °F 41% 30.12 in - WSW 9.2 mph - N/A   Clear
5:50 PM 75.2 °F 50.0 °F 41% 30.12 in - WSW 6.9 mph - N/A   Clear
6:20 PM 77.0 °F 50.0 °F 39% 30.12 in - West 4.6 mph - N/A   Clear
6:50 PM 75.2 °F 48.2 °F 38% 30.12 in - West 4.6 mph - N/A   Clear
7:20 PM 77.0 °F 51.8 °F 41% 30.09 in - WSW 5.8 mph - N/A   Clear
7:50 PM 71.6 °F 57.2 °F 60% 30.12 in - SSW 3.5 mph - N/A   Clear
8:20 PM 68.0 °F 57.2 °F 68% 30.12 in - South 4.6 mph - N/A   Clear
8:50 PM 66.2 °F 57.2 °F 73% 30.12 in - WSW 4.6 mph - N/A   Clear
9:20 PM 66.2 °F 55.4 °F 68% 30.12 in - NW 5.8 mph - N/A   Clear
9:39 PM 68.0 °F 55.4 °F 64% 30.15 in - NNE 5.8 mph - N/A   Clear
9:50 PM 66.2 °F 55.4 °F 68% 30.15 in 6.2 mi Variable 2.3 mph - N/A   Partly Cloudy
10:20 PM 64.4 °F 55.4 °F 73% 30.15 in 6.2 mi North 5.8 mph - N/A   Partly Cloudy
10:50 PM 62.6 °F 55.4 °F 77% 30.15 in 6.2 mi North 9.2 mph - N/A   Partly Cloudy
11:20 PM 60.8 °F 55.4 °F 82% 30.15 in 6.2 mi North 5.8 mph - N/A   Partly Cloudy
11:50 PM 62.6 °F 55.4 °F 77% 30.15 in 6.2 mi North 5.8 mph - N/A   Partly Cloudy